Time,TemperatureF,DewpointF,PressureIn,WindDirection,WindDirectionDegrees,WindSpeedMPH,WindSpeedGustMPH,Humidity,HourlyPrecipIn,Conditions,Clouds,dailyrainin,SoftwareType,DateUTC
2013-02-26 00:01:00,32.0,31.0,29.57,NW,318,2.0,9.0,95,0.01,,,1.23,,2013-02-26 06:01:00,
2013-02-26 00:11:00,32.0,31.0,29.57,NW,318,2.0,9.0,95,0.01,,,1.23,,2013-02-26 06:11:00,
2013-02-26 00:21:00,32.0,31.0,29.57,NNW,341,4.0,12.0,95,0.01,,,1.23,,2013-02-26 06:21:00,
2013-02-26 00:32:00,32.0,31.0,29.58,NNW,332,4.0,8.0,95,0.01,,,1.23,,2013-02-26 06:32:00,
2013-02-26 00:41:00,32.0,31.0,29.58,NNW,332,4.0,8.0,95,0.01,,,1.23,,2013-02-26 06:41:00,
2013-02-26 00:52:00,32.0,31.0,29.58,NNW,328,3.0,6.0,95,0.00,,,1.23,,2013-02-26 06:52:00,
2013-02-26 01:01:00,32.0,31.0,29.58,North,349,1.0,7.0,95,0.00,,,1.23,,2013-02-26 07:01:00,
2013-02-26 01:11:00,32.0,31.0,29.58,North,349,1.0,7.0,95,0.00,,,1.23,,2013-02-26 07:11:00,
2013-02-26 01:22:00,32.0,31.0,29.59,North,351,3.0,7.0,96,0.00,,,1.23,,2013-02-26 07:22:00,
2013-02-26 01:31:00,32.0,31.0,29.59,WNW,302,3.0,6.0,96,0.00,,,1.23,,2013-02-26 07:31:00,
2013-02-26 01:41:00,32.0,31.0,29.59,WNW,302,3.0,6.0,96,0.00,,,1.23,,2013-02-26 07:41:00,
2013-02-26 01:52:00,32.0,31.0,29.59,NW,317,2.0,5.0,96,0.00,,,1.23,,2013-02-26 07:52:00,
2013-02-26 02:02:00,32.0,31.0,29.59,NNW,345,2.0,7.0,96,0.00,,,1.23,,2013-02-26 08:02:00,
2013-02-26 02:11:00,32.0,31.0,29.59,NNW,345,2.0,7.0,96,0.00,,,1.23,,2013-02-26 08:11:00,
2013-02-26 02:21:00,32.0,31.0,29.60,NW,317,1.0,12.0,96,0.01,,,1.24,,2013-02-26 08:21:00,
2013-02-26 02:31:00,32.0,31.0,29.59,North,349,5.0,10.0,96,0.01,,,1.24,,2013-02-26 08:31:00,
2013-02-26 02:42:00,32.0,31.0,29.59,North,349,5.0,10.0,96,0.01,,,1.24,,2013-02-26 08:42:00,
2013-02-26 02:52:00,32.0,31.0,29.60,NNW,338,3.0,9.0,96,0.02,,,1.25,,2013-02-26 08:52:00,
2013-02-26 03:01:00,32.0,31.0,29.60,NW,307,2.0,7.0,96,0.02,,,1.25,,2013-02-26 09:01:00,
2013-02-26 03:11:00,32.0,31.0,29.60,NW,307,2.0,7.0,96,0.02,,,1.25,,2013-02-26 09:11:00,
2013-02-26 03:21:00,32.0,31.0,29.61,WNW,297,3.0,8.0,96,0.02,,,1.26,,2013-02-26 09:21:00,
2013-02-26 03:31:00,32.0,31.0,29.61,NW,325,2.0,6.0,95,0.02,,,1.26,,2013-02-26 09:31:00,
2013-02-26 03:43:00,32.0,31.0,29.61,NW,325,2.0,6.0,95,0.02,,,1.26,,2013-02-26 09:43:00,
2013-02-26 03:52:00,32.0,31.0,29.61,NNE,13,2.0,8.0,95,0.01,,,1.26,,2013-02-26 09:52:00,
2013-02-26 04:01:00,32.0,31.0,29.62,NNW,333,2.0,5.0,96,0.01,,,1.26,,2013-02-26 10:01:00,
2013-02-26 04:11:00,32.0,31.0,29.62,NNW,333,2.0,5.0,96,0.01,,,1.26,,2013-02-26 10:11:00,
2013-02-26 04:21:00,32.0,31.0,29.62,NW,324,2.0,6.0,96,0.00,,,1.26,,2013-02-26 10:21:00,
2013-02-26 04:31:00,32.0,31.0,29.63,West,279,1.0,7.0,96,0.01,,,1.27,,2013-02-26 10:31:00,
2013-02-26 04:41:00,32.0,31.0,29.63,West,279,1.0,7.0,96,0.01,,,1.27,,2013-02-26 10:41:00,
2013-02-26 04:52:00,33.0,32.0,29.63,NNW,329,1.0,8.0,95,0.01,,,1.27,,2013-02-26 10:52:00,
2013-02-26 05:01:00,33.0,32.0,29.64,NW,304,2.0,9.0,95,0.02,,,1.28,,2013-02-26 11:01:00,
2013-02-26 05:12:00,33.0,32.0,29.64,NW,304,2.0,9.0,95,0.02,,,1.28,,2013-02-26 11:12:00,
2013-02-26 05:21:00,33.0,31.0,29.65,WNW,285,3.0,8.0,94,0.01,,,1.28,,2013-02-26 11:21:00,
2013-02-26 05:32:00,32.0,30.0,29.65,NNW,333,2.0,7.0,94,0.01,,,1.28,,2013-02-26 11:32:00,
2013-02-26 05:42:00,32.0,30.0,29.65,NNW,333,2.0,7.0,94,0.01,,,1.28,,2013-02-26 11:42:00,
2013-02-26 05:52:00,32.0,31.0,29.65,NW,325,1.0,6.0,95,0.02,,,1.29,,2013-02-26 11:52:00,
2013-02-26 06:01:00,33.0,32.0,29.66,NW,319,2.0,6.0,95,0.01,,,1.29,,2013-02-26 12:01:00,
2013-02-26 06:11:00,33.0,32.0,29.66,NW,319,2.0,6.0,95,0.01,,,1.29,,2013-02-26 12:11:00,
2013-02-26 06:22:00,33.0,32.0,29.66,NW,316,3.0,9.0,95,0.02,,,1.30,,2013-02-26 12:22:00,
2013-02-26 06:32:00,33.0,31.0,29.67,NW,313,4.0,9.0,93,0.02,,,1.30,,2013-02-26 12:32:00,
2013-02-26 06:42:00,33.0,31.0,29.67,NW,313,4.0,9.0,93,0.02,,,1.30,,2013-02-26 12:42:00,
2013-02-26 06:53:00,34.0,32.0,29.68,NE,40,3.0,8.0,93,0.01,,,1.30,,2013-02-26 12:53:00,
2013-02-26 07:01:00,34.0,32.0,29.69,NNW,347,3.0,13.0,92,0.02,,,1.31,,2013-02-26 13:01:00,
2013-02-26 07:11:00,34.0,32.0,29.69,NNW,347,3.0,13.0,92,0.02,,,1.31,,2013-02-26 13:11:00,
2013-02-26 07:21:00,34.0,32.0,29.69,NW,316,3.0,10.0,91,0.01,,,1.31,,2013-02-26 13:21:00,
2013-02-26 07:32:00,34.0,31.0,29.70,WNW,293,3.0,9.0,90,0.01,,,1.31,,2013-02-26 13:32:00,
2013-02-26 07:42:00,34.0,31.0,29.70,WNW,293,3.0,9.0,90,0.01,,,1.31,,2013-02-26 13:42:00,
2013-02-26 07:52:00,34.0,31.0,29.71,NW,316,4.0,11.0,89,0.01,,,1.31,,2013-02-26 13:52:00,
2013-02-26 08:01:00,35.0,32.0,29.71,NNE,30,3.0,14.0,89,0.00,,,1.31,,2013-02-26 14:01:00,
2013-02-26 08:11:00,35.0,32.0,29.71,NNE,30,3.0,14.0,89,0.00,,,1.31,,2013-02-26 14:11:00,
2013-02-26 08:21:00,35.0,32.0,29.72,North,5,2.0,12.0,89,0.00,,,1.26,,2013-02-26 14:21:00,
2013-02-26 08:32:00,35.0,32.0,29.73,NNW,328,1.0,8.0,89,0.00,,,1.26,,2013-02-26 14:32:00,
2013-02-26 08:42:00,35.0,32.0,29.73,NNW,328,1.0,8.0,89,0.00,,,1.26,,2013-02-26 14:42:00,
2013-02-26 08:52:00,35.0,32.0,29.75,NW,317,2.0,6.0,89,0.00,,,1.26,,2013-02-26 14:52:00,
2013-02-26 09:02:00,35.0,32.0,29.76,NNW,332,2.0,6.0,89,0.00,,,1.26,,2013-02-26 15:02:00,
2013-02-26 09:11:00,35.0,32.0,29.76,NNW,332,2.0,6.0,89,0.00,,,1.26,,2013-02-26 15:11:00,
2013-02-26 09:21:00,35.0,32.0,29.77,WNW,300,2.0,10.0,90,0.00,,,1.13,,2013-02-26 15:21:00,
2013-02-26 09:32:00,35.0,32.0,29.78,NNW,338,2.0,8.0,90,0.00,,,1.13,,2013-02-26 15:32:00,
2013-02-26 09:42:00,35.0,32.0,29.78,NNW,338,2.0,8.0,90,0.00,,,1.13,,2013-02-26 15:42:00,
2013-02-26 09:51:00,35.0,32.0,29.78,North,351,1.0,11.0,88,0.00,,,1.13,,2013-02-26 15:51:00,
2013-02-26 10:01:00,35.0,32.0,29.78,NW,319,1.0,8.0,87,0.00,,,1.13,,2013-02-26 16:01:00,
2013-02-26 10:11:00,35.0,32.0,29.78,NW,319,1.0,8.0,87,0.00,,,1.13,,2013-02-26 16:11:00,
2013-02-26 10:22:00,35.0,32.0,29.78,NW,319,1.0,8.0,87,0.00,,,1.13,,2013-02-26 16:22:00,
2013-02-26 10:32:00,36.0,32.0,29.79,NW,313,1.0,8.0,86,0.00,,,1.02,,2013-02-26 16:32:00,
2013-02-26 10:42:00,36.0,32.0,29.79,NW,313,1.0,8.0,86,0.00,,,1.02,,2013-02-26 16:42:00,
2013-02-26 10:51:00,36.0,32.0,29.80,WNW,295,1.0,8.0,86,0.00,,,1.02,,2013-02-26 16:51:00,
2013-02-26 11:01:00,36.0,32.0,29.81,WNW,290,2.0,5.0,85,0.00,,,1.02,,2013-02-26 17:01:00,
2013-02-26 11:11:00,36.0,32.0,29.81,WNW,290,2.0,5.0,85,0.00,,,1.02,,2013-02-26 17:11:00,
2013-02-26 11:21:00,36.0,32.0,29.81,WNW,295,3.0,7.0,84,0.00,,,1.02,,2013-02-26 17:21:00,
2013-02-26 11:32:00,36.0,31.0,29.81,NNW,334,1.0,7.0,83,0.00,,,0.78,,2013-02-26 17:32:00,
2013-02-26 11:41:00,36.0,31.0,29.81,NNW,334,1.0,7.0,83,0.00,,,0.78,,2013-02-26 17:41:00,
2013-02-26 11:52:00,37.0,32.0,29.83,WNW,298,1.0,6.0,82,0.00,,,0.78,,2013-02-26 17:52:00,
2013-02-26 12:01:00,37.0,32.0,29.83,West,274,2.0,6.0,82,0.00,,,0.78,,2013-02-26 18:01:00,
2013-02-26 12:12:00,37.0,32.0,29.83,West,274,2.0,6.0,82,0.00,,,0.78,,2013-02-26 18:12:00,
2013-02-26 12:21:00,37.0,31.0,29.83,NNW,334,4.0,9.0,80,0.00,,,0.78,,2013-02-26 18:21:00,
2013-02-26 12:32:00,37.0,32.0,29.84,NW,323,2.0,7.0,81,0.00,,,0.57,,2013-02-26 18:32:00,
2013-02-26 12:42:00,37.0,32.0,29.84,NW,323,2.0,7.0,81,0.00,,,0.57,,2013-02-26 18:42:00,
2013-02-26 12:52:00,38.0,32.0,29.83,WNW,297,2.0,6.0,80,0.00,,,0.57,,2013-02-26 18:52:00,
2013-02-26 13:01:00,38.0,32.0,29.84,NNE,27,2.0,8.0,79,0.00,,,0.57,,2013-02-26 19:01:00,
2013-02-26 13:11:00,38.0,32.0,29.84,NNE,27,2.0,8.0,79,0.00,,,0.57,,2013-02-26 19:11:00,
2013-02-26 13:22:00,38.0,32.0,29.84,NNE,27,2.0,8.0,79,0.00,,,0.57,,2013-02-26 19:22:00,
2013-02-26 13:32:00,38.0,32.0,29.85,WNW,288,1.0,5.0,80,0.00,,,0.56,,2013-02-26 19:32:00,
2013-02-26 13:42:00,38.0,32.0,29.85,WNW,288,1.0,5.0,80,0.00,,,0.56,,2013-02-26 19:42:00,
2013-02-26 13:52:00,39.0,32.0,29.84,WNW,298,4.0,8.0,77,0.00,,,0.56,,2013-02-26 19:52:00,
2013-02-26 14:01:00,40.0,33.0,29.84,NNW,347,1.0,8.0,77,0.00,,,0.56,,2013-02-26 20:01:00,
2013-02-26 14:11:00,40.0,33.0,29.84,NNW,347,1.0,8.0,77,0.00,,,0.56,,2013-02-26 20:11:00,
2013-02-26 14:21:00,39.0,32.0,29.84,North,351,2.0,9.0,75,0.00,,,0.56,,2013-02-26 20:21:00,
2013-02-26 14:32:00,40.0,33.0,29.84,NW,323,3.0,10.0,75,0.00,,,0.55,,2013-02-26 20:32:00,
2013-02-26 14:41:00,40.0,33.0,29.84,NW,323,3.0,10.0,75,0.00,,,0.55,,2013-02-26 20:41:00,
2013-02-26 14:51:00,41.0,34.0,29.84,WNW,301,2.0,7.0,77,0.00,,,0.55,,2013-02-26 20:51:00,
2013-02-26 15:01:00,41.0,34.0,29.84,WNW,301,2.0,7.0,77,0.00,,,0.55,,2013-02-26 21:01:00,
2013-02-26 15:11:00,41.0,34.0,29.84,WNW,301,2.0,7.0,77,0.00,,,0.55,,2013-02-26 21:11:00,
2013-02-26 15:21:00,41.0,33.0,29.85,WNW,295,0.0,3.0,74,0.00,,,0.55,,2013-02-26 21:21:00,
2013-02-26 15:31:00,40.0,32.0,29.86,West,267,2.0,4.0,73,0.00,,,0.54,,2013-02-26 21:31:00,
2013-02-26 15:41:00,40.0,32.0,29.86,West,267,2.0,4.0,73,0.00,,,0.54,,2013-02-26 21:41:00,
2013-02-26 15:51:00,40.0,32.0,29.86,WNW,286,2.0,5.0,74,0.00,,,0.54,,2013-02-26 21:51:00,
2013-02-26 16:01:00,41.0,34.0,29.86,WNW,302,0.0,4.0,75,0.00,,,0.54,,2013-02-26 22:01:00,
2013-02-26 16:11:00,41.0,34.0,29.88,WSW,257,0.0,5.0,76,0.00,,,0.54,,2013-02-26 22:11:00,
2013-02-26 16:21:00,41.0,34.0,29.88,WSW,257,0.0,5.0,76,0.00,,,0.54,,2013-02-26 22:21:00,
2013-02-26 16:32:00,40.0,32.0,29.88,West,274,1.0,4.0,74,0.00,,,0.53,,2013-02-26 22:32:00,
2013-02-26 16:41:00,40.0,32.0,29.88,West,274,1.0,4.0,74,0.00,,,0.53,,2013-02-26 22:41:00,
2013-02-26 16:51:00,40.0,33.0,29.89,WNW,303,1.0,5.0,75,0.00,,,0.53,,2013-02-26 22:51:00,
2013-02-26 17:01:00,40.0,33.0,29.89,WNW,285,0.0,4.0,76,0.00,,,0.53,,2013-02-26 23:01:00,
2013-02-26 17:11:00,40.0,33.0,29.89,WNW,285,0.0,4.0,76,0.00,,,0.53,,2013-02-26 23:11:00,
2013-02-26 17:21:00,40.0,33.0,29.90,WNW,297,1.0,4.0,75,0.00,,,0.53,,2013-02-26 23:21:00,
2013-02-26 17:31:00,40.0,33.0,29.90,NW,316,0.0,5.0,76,0.00,,,0.52,,2013-02-26 23:31:00,
2013-02-26 17:41:00,40.0,33.0,29.90,NW,316,0.0,5.0,76,0.00,,,0.52,,2013-02-26 23:41:00,
2013-02-26 17:52:00,40.0,32.0,29.90,WNW,302,0.0,4.0,74,0.00,,,0.52,,2013-02-26 23:52:00,
2013-02-26 18:01:00,40.0,33.0,29.91,WNW,290,1.0,6.0,75,0.00,,,0.52,,2013-02-27 00:01:00,
2013-02-26 18:11:00,40.0,33.0,29.91,WNW,290,1.0,6.0,75,0.00,,,0.52,,2013-02-27 00:11:00,
2013-02-26 18:22:00,40.0,32.0,29.91,NW,316,2.0,5.0,74,0.00,,,0.52,,2013-02-27 00:22:00,
2013-02-26 18:31:00,39.0,32.0,29.92,WNW,297,0.0,2.0,75,0.00,,,0.50,,2013-02-27 00:31:00,
2013-02-26 18:42:00,39.0,32.0,29.92,WNW,297,0.0,2.0,75,0.00,,,0.50,,2013-02-27 00:42:00,
2013-02-26 18:51:00,39.0,32.0,29.93,North,356,0.0,2.0,76,0.00,,,0.50,,2013-02-27 00:51:00,
2013-02-26 19:01:00,39.0,32.0,29.93,North,359,0.0,5.0,75,0.00,,,0.50,,2013-02-27 01:01:00,
2013-02-26 19:11:00,39.0,32.0,29.93,North,359,0.0,5.0,75,0.00,,,0.50,,2013-02-27 01:11:00,
2013-02-26 19:21:00,39.0,32.0,29.94,WNW,290,0.0,2.0,76,0.00,,,0.50,,2013-02-27 01:21:00,
2013-02-26 19:32:00,39.0,32.0,29.95,NW,321,0.0,5.0,75,0.00,,,0.42,,2013-02-27 01:32:00,
2013-02-26 19:42:00,39.0,32.0,29.95,NW,321,0.0,5.0,75,0.00,,,0.42,,2013-02-27 01:42:00,
2013-02-26 19:51:00,38.0,31.0,29.96,WNW,293,0.0,3.0,77,0.00,,,0.42,,2013-02-27 01:51:00,
2013-02-26 20:01:00,38.0,31.0,29.97,WNW,288,0.0,3.0,77,0.00,,,0.42,,2013-02-27 02:01:00,
2013-02-26 20:14:00,38.0,31.0,29.97,WNW,288,0.0,3.0,77,0.00,,,0.42,,2013-02-27 02:14:00,
2013-02-26 20:23:00,38.0,31.0,29.98,West,281,1.0,3.0,77,0.00,,,0.42,,2013-02-27 02:23:00,
2013-02-26 20:32:00,38.0,31.0,29.98,WNW,294,0.0,4.0,77,0.00,,,0.23,,2013-02-27 02:32:00,
2013-02-26 20:42:00,38.0,31.0,29.98,WNW,294,0.0,4.0,77,0.00,,,0.23,,2013-02-27 02:42:00,
2013-02-26 20:52:00,38.0,31.0,30.00,WNW,293,0.0,2.0,77,0.00,,,0.23,,2013-02-27 02:52:00,
2013-02-26 21:02:00,38.0,31.0,30.01,NNW,328,1.0,4.0,75,0.00,,,0.23,,2013-02-27 03:02:00,
2013-02-26 21:11:00,38.0,31.0,30.01,NNW,328,1.0,4.0,75,0.00,,,0.23,,2013-02-27 03:11:00,
2013-02-26 21:22:00,37.0,30.0,30.01,WNW,282,0.0,1.0,77,0.00,,,0.23,,2013-02-27 03:22:00,
2013-02-26 21:32:00,37.0,30.0,30.01,WNW,282,0.0,1.0,77,0.00,,,0.23,,2013-02-27 03:32:00,
2013-02-26 21:42:00,37.0,30.0,30.01,WNW,282,0.0,1.0,77,0.00,,,0.23,,2013-02-27 03:42:00,
2013-02-26 21:51:00,37.0,30.0,30.01,NNW,335,0.0,3.0,77,0.00,,,0.12,,2013-02-27 03:51:00,
2013-02-26 22:01:00,36.0,30.0,30.02,WNW,293,0.0,1.0,78,0.00,,,0.12,,2013-02-27 04:01:00,
2013-02-26 22:11:00,36.0,30.0,30.02,WNW,293,0.0,1.0,78,0.00,,,0.12,,2013-02-27 04:11:00,
2013-02-26 22:21:00,36.0,30.0,30.01,WNW,297,0.0,3.0,78,0.00,,,0.12,,2013-02-27 04:21:00,
2013-02-26 22:32:00,36.0,30.0,29.99,NNW,341,0.0,2.0,79,0.00,,,0.10,,2013-02-27 04:32:00,
2013-02-26 22:42:00,36.0,30.0,29.99,NNW,341,0.0,2.0,79,0.00,,,0.10,,2013-02-27 04:42:00,
2013-02-26 22:51:00,35.0,29.0,29.99,NNW,343,0.0,1.0,80,0.00,,,0.10,,2013-02-27 04:51:00,
2013-02-26 23:01:00,33.0,28.0,30.00,NNW,343,0.0,0.0,82,0.00,,,0.10,,2013-02-27 05:01:00,
2013-02-26 23:12:00,33.0,28.0,30.00,NNW,343,0.0,0.0,82,0.00,,,0.10,,2013-02-27 05:12:00,
2013-02-26 23:22:00,32.0,28.0,30.01,NNW,342,0.0,0.0,84,0.00,,,0.10,,2013-02-27 05:22:00,
2013-02-26 23:32:00,31.0,28.0,30.02,NNW,342,0.0,0.0,87,0.00,,,0.09,,2013-02-27 05:32:00,
2013-02-26 23:42:00,31.0,28.0,30.02,NNW,342,0.0,0.0,87,0.00,,,0.09,,2013-02-27 05:42:00,
2013-02-26 23:52:00,31.0,28.0,30.02,NNW,343,0.0,0.0,89,0.00,,,0.09,,2013-02-27 05:52:00,